QZS-3 (MICHIBIKI-3)

Last updated on Sept. 26, 2020, 5:40 a.m. UTC

1 42917U 17048A   20269.83537920 -.00000371  00000-0  00000-0 0  9991
2 42917   0.0494 195.3690 0001627 353.4350 244.0794  1.00270046 11297
UTC
Height (km)
Latitude
Longitude
Inclination
Orbital Period
UTC large
Height (km)
Speed (km/s)
/
Latitude / Longitude
Inclination (degrees)
Orbital Period (minutes)
Azimuth
Elevation
Range (km)
Doppler Factor
iOS Compass Heading
iOS Angle

Next 30 passes for location: Hong Kong

Rise time Rise Azimuth (degrees) Set time Set Azimuth (degrees) Duration Max altitude (degrees)

No matching passes for this satellites